| time (UTC) | temp C | wind direction | speed KPH | gust KPH | rain 1hr cm | rain 24hr cm | rain mn cm | humidity % | barometer mb |
| 20260504081703 | 12 | 235 | 20.9 | 37.0 | 0.00 | 0.00 | 0.00 | 1 | 1004.9 |
| 20260504081159 | 11 | 236 | 24.1 | 35.4 | 0.00 | 0.00 | 0.00 | 1 | 1004.9 |
| 20260504080655 | 11 | 239 | 22.5 | 30.6 | 0.00 | 0.00 | 0.00 | 1 | 1005.2 |
| 20260504080152 | 11 | 211 | 19.3 | 33.8 | 0.00 | 0.00 | 0.00 | 1 | 1005.1 |
| 20260504070120 | 12 | 235 | 22.5 | 32.2 | 0.00 | 0.00 | 0.00 | 1 | 1006.0 |
| 20260504050508 | 13 | 230 | 20.9 | 30.6 | 0.00 | 0.00 | 0.00 | 1 | 1007.3 |
| 20260504050005 | 13 | 248 | 22.5 | 27.4 | 0.00 | 0.00 | 0.00 | 1 | 1007.3 |
| 20260504045501 | 13 | 234 | 11.3 | 27.4 | 0.00 | 0.00 | 0.00 | 1 | 1007.3 |
| 20260504044957 | 13 | 238 | 14.5 | 25.7 | 0.00 | 0.00 | 0.00 | 1 | 1007.4 |
| 20260504044455 | 13 | 245 | 17.7 | 24.1 | 0.00 | 0.00 | 0.00 | 1 | 1007.4 |
| 20260504043952 | 13 | 235 | 22.5 | 22.5 | 0.00 | 0.00 | 0.00 | 1 | 1007.4 |
| 20260504043449 | 14 | 235 | 20.9 | 27.4 | 0.00 | 0.00 | 0.00 | 1 | 1007.4 |
| 20260504042947 | 13 | 240 | 14.5 | 25.7 | 0.00 | 0.00 | 0.00 | 1 | 1007.4 |
| 20260504042443 | 13 | 227 | 12.9 | 24.1 | 0.00 | 0.00 | 0.00 | 1 | 1007.7 |
| 20260504041940 | 13 | 224 | 11.3 | 24.1 | 0.00 | 0.00 | 0.00 | 1 | 1007.7 |
| 20260504041436 | 14 | 227 | 14.5 | 17.7 | 0.00 | 0.00 | 0.00 | 1 | 1007.6 |
| 20260504040932 | 14 | 231 | 12.9 | 22.5 | 0.00 | 0.00 | 0.00 | 1 | 1007.7 |
| 20260504040430 | 14 | 228 | 11.3 | 19.3 | 0.00 | 0.00 | 0.00 | 1 | 1007.7 |
| 20260504035925 | 14 | 244 | 9.7 | 14.5 | 0.00 | 0.00 | 0.00 | 1 | 1007.9 |
| 20260504035423 | 14 | 228 | 9.7 | 17.7 | 0.00 | 0.00 | 0.00 | 1 | 1007.9 |
| 20260504034920 | 15 | 236 | 11.3 | 17.7 | 0.00 | 0.00 | 0.00 | 1 | 1008.0 |
| 20260504034417 | 15 | 229 | 9.7 | 17.7 | 0.00 | 0.00 | 0.00 | 1 | 1008.0 |
| 20260504033914 | 15 | 232 | 11.3 | 16.1 | 0.00 | 0.00 | 0.00 | 1 | 1007.8 |
| 20260504033412 | 15 | 249 | 12.9 | 16.1 | 0.00 | 0.00 | 0.00 | 1 | 1007.8 |
| 20260504032909 | 15 | 215 | 6.4 | 17.7 | 0.00 | 0.00 | 0.00 | 1 | 1008.0 |
| 20260504032406 | 15 | 229 | 11.3 | 19.3 | 0.00 | 0.00 | 0.00 | 1 | 1007.9 |
| 20260504031902 | 15 | 229 | 8.0 | 17.7 | 0.00 | 0.00 | 0.00 | 1 | 1008.0 |
| 20260504031359 | 16 | 227 | 9.7 | 17.7 | 0.00 | 0.00 | 0.00 | 1 | 1008.1 |
| 20260504030855 | 16 | 227 | 9.7 | 11.3 | 0.00 | 0.00 | 0.00 | 1 | 1008.1 |
| 20260504030353 | 16 | 192 | 4.8 | 9.7 | 0.00 | 0.00 | 0.00 | 1 | 1008.0 |
| 20260504025849 | 16 | 219 | 4.8 | 8.0 | 0.00 | 0.00 | 0.00 | 1 | 1008.0 |
| 20260504025346 | 16 | 198 | 4.8 | 8.0 | 0.00 | 0.00 | 0.00 | 1 | 1008.1 |
| 20260504024843 | 16 | 257 | 6.4 | 6.4 | 0.00 | 0.00 | 0.00 | 1 | 1008.1 |
| 20260504024339 | 16 | 199 | 3.2 | 6.4 | 0.00 | 0.00 | 0.00 | 1 | 1008.2 |
| 20260504023836 | 16 | 227 | 4.8 | 6.4 | 0.00 | 0.00 | 0.00 | 1 | 1008.1 |
| 20260504023333 | 16 | 187 | 3.2 | 6.4 | 0.00 | 0.00 | 0.00 | 1 | 1008.2 |
| 20260504022828 | 17 | 196 | 3.2 | 9.7 | 0.00 | 0.00 | 0.00 | 1 | 1008.3 |
| 20260504022326 | 17 | 199 | 6.4 | 9.7 | 0.00 | 0.00 | 0.00 | 1 | 1008.5 |
| 20260504021822 | 17 | 202 | 3.2 | 8.0 | 0.00 | 0.00 | 0.00 | 1 | 1008.3 |
| 20260504021320 | 17 | 180 | 1.6 | 8.0 | 0.00 | 0.00 | 0.00 | 1 | 1008.4 |
| 20260504020817 | 17 | 216 | 4.8 | 6.4 | 0.00 | 0.00 | 0.00 | 1 | 1008.4 |
| 20260504020313 | 17 | 195 | 1.6 | 4.8 | 0.00 | 0.00 | 0.00 | 1 | 1008.4 |
| 20260504015809 | 17 | 192 | 1.6 | 4.8 | 0.00 | 0.00 | 0.00 | 1 | 1008.5 |
| 20260504015306 | 18 | 203 | 3.2 | 4.8 | 0.00 | 0.00 | 0.00 | 1 | 1008.6 |
| 20260504014802 | 18 | 192 | 0.0 | 3.2 | 0.00 | 0.00 | 0.00 | 1 | 1008.8 |
| 20260504014258 | 18 | 217 | 3.2 | 4.8 | 0.00 | 0.00 | 0.00 | 1 | 1008.6 |
| 20260504013756 | 18 | 248 | 3.2 | 3.2 | 0.00 | 0.00 | 0.00 | 1 | 1008.9 |
| 20260504013253 | 18 | 240 | 1.6 | 3.2 | 0.00 | 0.00 | 0.00 | 1 | 1008.9 |
| 20260504012749 | 18 | 221 | 3.2 | 3.2 | 0.00 | 0.00 | 0.00 | 1 | 1008.8 |
| 20260504012247 | 19 | 237 | 3.2 | 6.4 | 0.00 | 0.00 | 0.00 | 1 | 1008.9 |
| 20260504011744 | 19 | 238 | 4.8 | 6.4 | 0.00 | 0.00 | 0.00 | 1 | 1009.0 |
| 20260504011241 | 20 | 244 | 4.8 | 6.4 | 0.00 | 0.00 | 0.00 | 1 | 1008.9 |
| 20260504010737 | 20 | 270 | 3.2 | 6.4 | 0.00 | 0.00 | 0.00 | 1 | 1009.0 |
| 20260504010232 | 20 | 297 | 3.2 | 4.8 | 0.00 | 0.00 | 0.00 | 1 | 1009.3 |
| 20260504005730 | 20 | 240 | 4.8 | 9.7 | 0.00 | 0.00 | 0.00 | 1 | 1009.5 |
| 20260504005227 | 20 | 237 | 3.2 | 9.7 | 0.00 | 0.00 | 0.00 | 1 | 1009.5 |
| 20260504004724 | 20 | 252 | 8.0 | 12.9 | 0.00 | 0.00 | 0.00 | 1 | 1009.5 |
| 20260504004221 | 21 | 254 | 8.0 | 9.7 | 0.00 | 0.00 | 0.00 | 1 | 1009.6 |
| 20260504003718 | 21 | 257 | 6.4 | 12.9 | 0.00 | 0.00 | 0.00 | 1 | 1009.7 |
| 20260504003215 | 21 | 252 | 12.9 | 12.9 | 0.00 | 0.00 | 0.00 | 1 | 1009.8 |
| 20260504002712 | 21 | 292 | 4.8 | 8.0 | 0.00 | 0.00 | 0.00 | 1 | 1009.9 |
| 20260504002209 | 21 | 270 | 8.0 | 11.3 | 0.00 | 0.00 | 0.00 | 1 | 1009.8 |
| 20260504001707 | 21 | 263 | 9.7 | 14.5 | 0.00 | 0.00 | 0.00 | 1 | 1009.9 |
| 20260504001203 | 21 | 257 | 9.7 | 14.5 | 0.00 | 0.00 | 0.00 | 1 | 1009.9 |
| 20260504000700 | 21 | 259 | 8.0 | 12.9 | 0.00 | 0.00 | 0.00 | 1 | 1010.3 |
| 20260504000157 | 21 | 261 | 4.8 | 12.9 | 0.00 | 0.00 | 0.00 | 1 | 1010.3 |
| 20260503235655 | 21 | 254 | 11.3 | 16.1 | 0.00 | 0.00 | 0.00 | 1 | 1010.5 |
| 20260503235151 | 21 | 252 | 8.0 | 14.5 | 0.00 | 0.00 | 0.00 | 1 | 1010.5 |
| 20260503234649 | 21 | 292 | 9.7 | 14.5 | 0.00 | 0.00 | 0.00 | 1 | 1010.7 |
| 20260503234148 | 21 | 288 | 3.2 | 11.3 | 0.00 | 0.00 | 0.00 | 1 | 1010.6 |
| 20260503233644 | 21 | 311 | 0.0 | 16.1 | 0.00 | 0.00 | 0.00 | 1 | 1010.8 |
| 20260503233139 | 21 | 300 | 8.0 | 14.5 | 0.00 | 0.00 | 0.00 | 1 | 1010.8 |
| 20260503232637 | 21 | 332 | 14.5 | 16.1 | 0.00 | 0.00 | 0.00 | 1 | 1011.1 |
| 20260503232134 | 21 | 277 | 11.3 | 20.9 | 0.00 | 0.00 | 0.00 | 1 | 1010.9 |
| 20260503231632 | 21 | 292 | 11.3 | 17.7 | 0.00 | 0.00 | 0.00 | 1 | 1011.1 |
| 20260503231128 | 21 | 296 | 4.8 | 12.9 | 0.00 | 0.00 | 0.00 | 1 | 1011.4 |
| 20260503230625 | 21 | 255 | 19.3 | 25.7 | 0.00 | 0.00 | 0.00 | 1 | 1011.4 |
| 20260503230122 | 20 | 235 | 11.3 | 14.5 | 0.00 | 0.00 | 0.00 | 1 | 1011.5 |
| 20260503225620 | 21 | 285 | 12.9 | 16.1 | 0.00 | 0.00 | 0.00 | 1 | 1011.4 |
| 20260503225119 | 21 | 284 | 11.3 | 12.9 | 0.00 | 0.00 | 0.00 | 1 | 1011.4 |
| 20260503224617 | 21 | 241 | 3.2 | 19.3 | 0.00 | 0.00 | 0.00 | 1 | 1011.5 |
| 20260503224115 | 21 | 318 | 0.0 | 22.5 | 0.00 | 0.00 | 0.00 | 1 | 1011.7 |
| 20260503223613 | 20 | 295 | 9.7 | 17.7 | 0.00 | 0.00 | 0.00 | 1 | 1011.7 |
| 20260503223108 | 20 | 306 | 14.5 | 22.5 | 0.00 | 0.00 | 0.00 | 1 | 1011.8 |
| 20260503222606 | 21 | 290 | 4.8 | 17.7 | 0.00 | 0.00 | 0.00 | 1 | 1012.0 |
| 20260503222104 | 20 | 289 | 9.7 | 19.3 | 0.00 | 0.00 | 0.00 | 1 | 1012.0 |
| 20260503221602 | 20 | 239 | 17.7 | 20.9 | 0.00 | 0.00 | 0.00 | 1 | 1012.3 |
| 20260503221059 | 20 | 294 | 9.7 | 16.1 | 0.00 | 0.00 | 0.00 | 1 | 1012.2 |
| 20260503220555 | 20 | 326 | 8.0 | 19.3 | 0.00 | 0.00 | 0.00 | 1 | 1012.3 |
| 20260503220052 | 20 | 307 | 9.7 | 16.1 | 0.00 | 0.00 | 0.00 | 1 | 1012.5 |
| 20260503215549 | 20 | 281 | 12.9 | 20.9 | 0.00 | 0.00 | 0.00 | 1 | 1012.3 |
| 20260503215046 | 20 | 274 | 17.7 | 20.9 | 0.00 | 0.00 | 0.00 | 1 | 1012.5 |
| 20260503214544 | 20 | 303 | 14.5 | 27.4 | 0.00 | 0.00 | 0.00 | 1 | 1012.6 |
| 20260503214040 | 20 | 294 | 6.4 | 17.7 | 0.00 | 0.00 | 0.00 | 1 | 1012.7 |
| 20260503213539 | 20 | 315 | 12.9 | 16.1 | 0.00 | 0.00 | 0.00 | 1 | 1012.7 |
| 20260503213035 | 21 | 286 | 14.5 | 27.4 | 0.00 | 0.00 | 0.00 | 1 | 1013.0 |
| 20260503212533 | 20 | 247 | 16.1 | 22.5 | 0.00 | 0.00 | 0.00 | 1 | 1013.0 |
| 20260503212030 | 20 | 317 | 8.0 | 19.3 | 0.00 | 0.00 | 0.00 | 1 | 1013.1 |
| 20260503211527 | 20 | 315 | 4.8 | 16.1 | 0.00 | 0.00 | 0.00 | 1 | 1013.2 |
| 20260503211023 | 20 | 312 | 12.9 | 17.7 | 0.00 | 0.00 | 0.00 | 1 | 1013.4 |
| 20260503210520 | 19 | 254 | 20.9 | 30.6 | 0.00 | 0.00 | 0.00 | 1 | 1013.6 |
| 20260503210015 | 20 | 292 | 16.1 | 25.7 | 0.00 | 0.00 | 0.00 | 1 | 1013.6 |
| 20260503205512 | 19 | 274 | 17.7 | 24.1 | 0.00 | 0.00 | 0.00 | 1 | 1013.8 |
| 20260503205009 | 19 | 258 | 12.9 | 27.4 | 0.00 | 0.00 | 0.00 | 1 | 1013.8 |
| 20260503204506 | 20 | 281 | 16.1 | 24.1 | 0.00 | 0.00 | 0.00 | 1 | 1014.0 |
| 20260503204002 | 20 | 276 | 16.1 | 27.4 | 0.00 | 0.00 | 0.00 | 1 | 1014.0 |
| 20260503203500 | 19 | 277 | 17.7 | 24.1 | 0.00 | 0.00 | 0.00 | 1 | 1013.9 |
| 20260503202956 | 19 | 253 | 14.5 | 24.1 | 0.00 | 0.00 | 0.00 | 1 | 1014.1 |
| 20260503202455 | 19 | 287 | 22.5 | 24.1 | 0.00 | 0.00 | 0.00 | 1 | 1014.3 |
| 20260503201953 | 18 | 260 | 19.3 | 19.3 | 0.00 | 0.00 | 0.00 | 1 | 1014.5 |
| 20260503201450 | 18 | 294 | 19.3 | 30.6 | 0.00 | 0.00 | 0.00 | 1 | 1014.8 |
| 20260503200947 | 19 | 308 | 8.0 | 14.5 | 0.00 | 0.00 | 0.00 | 1 | 1014.6 |
| 20260503200444 | 18 | 256 | 11.3 | 24.1 | 0.00 | 0.00 | 0.00 | 1 | 1014.9 |
| 20260503195940 | 18 | 279 | 14.5 | 32.2 | 0.00 | 0.00 | 0.00 | 1 | 1014.8 |
| 20260503195438 | 18 | 269 | 19.3 | 32.2 | 0.00 | 0.00 | 0.00 | 1 | 1014.8 |
| 20260503194934 | 18 | 264 | 17.7 | 30.6 | 0.00 | 0.00 | 0.00 | 1 | 1015.0 |
| 20260503194431 | 18 | 261 | 25.7 | 25.7 | 0.00 | 0.00 | 0.00 | 1 | 1014.9 |
| 20260503193926 | 18 | 275 | 24.1 | 27.4 | 0.00 | 0.00 | 0.00 | 1 | 1015.0 |
| 20260503193422 | 18 | 312 | 14.5 | 25.7 | 0.00 | 0.00 | 0.00 | 1 | 1015.0 |
| 20260503192918 | 18 | 260 | 12.9 | 20.9 | 0.00 | 0.00 | 0.00 | 1 | 1015.2 |
| 20260503192414 | 18 | 261 | 11.3 | 29.0 | 0.00 | 0.00 | 0.00 | 1 | 1015.1 |
| 20260503191910 | 18 | 272 | 16.1 | 32.2 | 0.00 | 0.00 | 0.00 | 1 | 1015.2 |
| 20260503191408 | 18 | 273 | 16.1 | 29.0 | 0.00 | 0.00 | 0.00 | 1 | 1015.3 |
| 20260503190904 | 18 | 246 | 33.8 | 33.8 | 0.00 | 0.00 | 0.00 | 1 | 1015.6 |
| 20260503190401 | 17 | 293 | 22.5 | 35.4 | 0.00 | 0.00 | 0.00 | 1 | 1015.6 |
| 20260503185858 | 18 | 295 | 22.5 | 35.4 | 0.00 | 0.00 | 0.00 | 1 | 1015.8 |
| 20260503185355 | 18 | 255 | 19.3 | 24.1 | 0.00 | 0.00 | 0.00 | 1 | 1015.8 |
| 20260503184854 | 17 | 275 | 14.5 | 32.2 | 0.00 | 0.00 | 0.00 | 1 | 1015.9 |
| 20260503184350 | 17 | 258 | 25.7 | 32.2 | 0.00 | 0.00 | 0.00 | 1 | 1015.7 |
| 20260503183846 | 17 | 282 | 24.1 | 32.2 | 0.00 | 0.00 | 0.00 | 1 | 1015.9 |
| 20260503183344 | 17 | 277 | 19.3 | 25.7 | 0.00 | 0.00 | 0.00 | 1 | 1016.0 |
| 20260503182841 | 17 | 297 | 27.4 | 29.0 | 0.00 | 0.00 | 0.00 | 1 | 1016.0 |
| 20260503182340 | 17 | 257 | 25.7 | 37.0 | 0.00 | 0.00 | 0.00 | 1 | 1016.2 |
| 20260503181837 | 17 | 257 | 16.1 | 33.8 | 0.00 | 0.00 | 0.00 | 1 | 1016.2 |
| 20260503181334 | 17 | 273 | 24.1 | 32.2 | 0.00 | 0.00 | 0.00 | 1 | 1016.3 |
| 20260503180830 | 17 | 274 | 17.7 | 35.4 | 0.00 | 0.00 | 0.00 | 1 | 1016.3 |
| 20260503180328 | 17 | 274 | 11.3 | 35.4 | 0.00 | 0.00 | 0.00 | 1 | 1016.4 |
| 20260503175824 | 17 | 281 | 33.8 | 33.8 | 0.00 | 0.00 | 0.00 | 1 | 1016.3 |
| 20260503175323 | 18 | 283 | 22.5 | 22.5 | 0.00 | 0.00 | 0.00 | 1 | 1016.4 |
| 20260503174818 | 17 | 290 | 22.5 | 29.0 | 0.00 | 0.00 | 0.00 | 1 | 1016.9 |
| 20260503174316 | 16 | 296 | 17.7 | 29.0 | 0.00 | 0.00 | 0.00 | 1 | 1016.7 |
| 20260503173811 | 17 | 300 | 8.0 | 30.6 | 0.00 | 0.00 | 0.00 | 1 | 1016.7 |
| 20260503173308 | 17 | 271 | 16.1 | 27.4 | 0.00 | 0.00 | 0.00 | 1 | 1016.9 |
| 20260503172805 | 17 | 280 | 9.7 | 19.3 | 0.00 | 0.00 | 0.00 | 1 | 1016.9 |
| 20260503172305 | 17 | 253 | 20.9 | 24.1 | 0.00 | 0.00 | 0.00 | 1 | 1017.0 |
| 20260503171758 | 17 | 305 | 11.3 | 25.7 | 0.00 | 0.00 | 0.00 | 1 | 1016.9 |
| 20260503171255 | 17 | 282 | 12.9 | 24.1 | 0.00 | 0.00 | 0.00 | 1 | 1017.2 |
| 20260503170752 | 17 | 258 | 14.5 | 22.5 | 0.00 | 0.00 | 0.00 | 1 | 1016.9 |
| 20260503170249 | 16 | 290 | 14.5 | 27.4 | 0.00 | 0.00 | 0.00 | 1 | 1017.2 |
| 20260503160211 | 15 | 264 | 14.5 | 16.1 | 0.00 | 0.00 | 0.00 | 1 | 1017.4 |
| 20260503150641 | 13 | 249 | 4.8 | 14.5 | 0.00 | 0.00 | 0.00 | 1 | 1017.8 |
| 20260503150137 | 12 | 239 | 3.2 | 11.3 | 0.00 | 0.00 | 0.00 | 1 | 1017.9 |
| 20260503131031 | 10 | 273 | 11.3 | 17.7 | 0.00 | 0.00 | 0.00 | 1 | 1018.1 |
| 20260503130528 | 10 | 290 | 11.3 | 12.9 | 0.00 | 0.00 | 0.00 | 1 | 1018.0 |
| 20260503110419 | 7 | 304 | 14.5 | 19.3 | 0.00 | 0.00 | 0.00 | 1 | 1017.2 |